Time,TemperatureF,DewpointF,PressureIn,WindDirection,WindDirectionDegrees,WindSpeedMPH,WindSpeedGustMPH,Humidity,HourlyPrecipIn,Conditions,Clouds,dailyrainin,SoftwareType,DateUTC
2013-06-19 00:02:00,54.0,53.0,30.08,ESE,115,0.0,0.0,95,0.00,,,0.04,,2013-06-19 04:02:00,
2013-06-19 00:12:00,53.0,52.0,30.08,ESE,115,0.0,0.0,96,0.00,,,0.04,,2013-06-19 04:12:00,
2013-06-19 00:23:00,53.0,52.0,30.08,ESE,115,0.0,0.0,96,0.00,,,0.04,,2013-06-19 04:23:00,
2013-06-19 00:32:00,53.0,52.0,30.08,ESE,115,0.0,0.0,96,0.00,,,0.04,,2013-06-19 04:32:00,
2013-06-19 00:43:00,53.0,52.0,30.08,ESE,115,0.0,0.0,96,0.00,,,0.04,,2013-06-19 04:43:00,
2013-06-19 01:11:00,52.0,51.0,30.09,ESE,114,0.0,0.0,96,0.00,,,0.04,,2013-06-19 05:11:00,
2013-06-19 01:23:00,52.0,51.0,30.09,ESE,114,0.0,0.0,96,0.00,,,0.04,,2013-06-19 05:23:00,
2013-06-19 01:32:00,52.0,51.0,30.09,ESE,114,0.0,0.0,96,0.00,,,0.04,,2013-06-19 05:32:00,
2013-06-19 01:43:00,52.0,51.0,30.09,ESE,114,0.0,0.0,96,0.00,,,0.04,,2013-06-19 05:43:00,
2013-06-19 01:52:00,51.0,50.0,30.08,ESE,114,0.0,0.0,96,0.00,,,0.04,,2013-06-19 05:52:00,
2013-06-19 02:02:00,51.0,50.0,30.08,ESE,114,0.0,0.0,96,0.00,,,0.04,,2013-06-19 06:02:00,
2013-06-19 02:11:00,51.0,50.0,30.08,ESE,114,0.0,0.0,96,0.00,,,0.04,,2013-06-19 06:11:00,
2013-06-19 02:22:00,50.0,49.0,30.08,ESE,115,0.0,0.0,96,0.00,,,0.04,,2013-06-19 06:22:00,
2013-06-19 02:34:00,50.0,49.0,30.08,ESE,115,0.0,0.0,96,0.00,,,0.04,,2013-06-19 06:34:00,
2013-06-19 02:43:00,50.0,49.0,30.08,ESE,115,0.0,0.0,96,0.00,,,0.04,,2013-06-19 06:43:00,
2013-06-19 02:52:00,50.0,49.0,30.08,ESE,114,0.0,0.0,96,0.00,,,0.04,,2013-06-19 06:52:00,
2013-06-19 03:01:00,50.0,49.0,30.08,ESE,114,0.0,0.0,96,0.00,,,0.04,,2013-06-19 07:01:00,
2013-06-19 03:12:00,50.0,49.0,30.08,ESE,114,0.0,0.0,97,0.00,,,0.04,,2013-06-19 07:12:00,
2013-06-19 03:22:00,49.0,48.0,30.08,ESE,115,0.0,0.0,97,0.00,,,0.04,,2013-06-19 07:22:00,
2013-06-19 03:33:00,49.0,48.0,30.08,ESE,114,0.0,0.0,96,0.00,,,0.04,,2013-06-19 07:33:00,
2013-06-19 03:43:00,49.0,48.0,30.08,ESE,114,0.0,0.0,96,0.00,,,0.04,,2013-06-19 07:43:00,
2013-06-19 03:53:00,48.0,47.0,30.09,ESE,115,0.0,1.0,96,0.00,,,0.04,,2013-06-19 07:53:00,
2013-06-19 04:02:00,48.0,47.0,30.09,ESE,114,0.0,0.0,96,0.00,,,0.04,,2013-06-19 08:02:00,
2013-06-19 04:11:00,48.0,47.0,30.09,ESE,114,0.0,0.0,96,0.00,,,0.04,,2013-06-19 08:11:00,
2013-06-19 04:22:00,47.0,46.0,30.09,ESE,114,0.0,0.0,96,0.00,,,0.04,,2013-06-19 08:22:00,
2013-06-19 04:34:00,47.0,46.0,30.09,ESE,114,0.0,0.0,96,0.00,,,0.04,,2013-06-19 08:34:00,
2013-06-19 04:43:00,47.0,46.0,30.10,ESE,114,0.0,0.0,96,0.00,,,0.04,,2013-06-19 08:43:00,
2013-06-19 04:54:00,46.0,45.0,30.10,ESE,114,0.0,1.0,96,0.00,,,0.04,,2013-06-19 08:54:00,
2013-06-19 05:02:00,46.0,45.0,30.10,ESE,114,0.0,1.0,96,0.00,,,0.04,,2013-06-19 09:02:00,
2013-06-19 05:12:00,46.0,45.0,30.11,ESE,114,0.0,1.0,96,0.00,,,0.04,,2013-06-19 09:12:00,
2013-06-19 05:22:00,45.0,44.0,30.11,ESE,114,0.0,1.0,96,0.00,,,0.03,,2013-06-19 09:22:00,
2013-06-19 05:34:00,45.0,44.0,30.11,ESE,114,0.0,1.0,96,0.00,,,0.03,,2013-06-19 09:34:00,
2013-06-19 05:44:00,45.0,44.0,30.11,ESE,114,0.0,0.0,97,0.00,,,0.03,,2013-06-19 09:44:00,
2013-06-19 05:53:00,45.0,44.0,30.12,ESE,114,0.0,0.0,97,0.00,,,0.03,,2013-06-19 09:53:00,
2013-06-19 06:02:00,45.0,44.0,30.12,ESE,114,0.0,0.0,97,0.00,,,0.03,,2013-06-19 10:02:00,
2013-06-19 06:12:00,45.0,44.0,30.11,ESE,114,0.0,1.0,97,0.00,,,0.03,,2013-06-19 10:12:00,
2013-06-19 06:22:00,45.0,44.0,30.12,ESE,114,0.0,0.0,97,0.00,,,0.03,,2013-06-19 10:22:00,
2013-06-19 06:33:00,45.0,44.0,30.12,ESE,114,0.0,0.0,97,0.00,,,0.03,,2013-06-19 10:33:00,
2013-06-19 06:42:00,45.0,44.0,30.13,ESE,114,0.0,0.0,97,0.00,,,0.03,,2013-06-19 10:42:00,
2013-06-19 06:53:00,46.0,45.0,30.13,ESE,115,0.0,0.0,97,0.00,,,0.03,,2013-06-19 10:53:00,
2013-06-19 07:02:00,46.0,45.0,30.14,ESE,114,0.0,2.0,97,0.00,,,0.03,,2013-06-19 11:02:00,
2013-06-19 07:12:00,46.0,45.0,30.14,ESE,114,0.0,2.0,97,0.00,,,0.03,,2013-06-19 11:12:00,
2013-06-19 07:22:00,48.0,47.0,30.14,ESE,114,0.0,0.0,98,0.00,,,0.03,,2013-06-19 11:22:00,
2013-06-19 07:33:00,48.0,47.0,30.14,ESE,114,0.0,0.0,98,0.00,,,0.03,,2013-06-19 11:33:00,
2013-06-19 07:43:00,50.0,49.0,30.14,ESE,114,0.0,0.0,98,0.00,,,0.03,,2013-06-19 11:43:00,
2013-06-19 07:54:00,51.0,50.0,30.15,ESE,114,0.0,0.0,98,0.00,,,0.03,,2013-06-19 11:54:00,
2013-06-19 08:02:00,53.0,52.0,30.15,ESE,114,0.0,0.0,98,0.00,,,0.03,,2013-06-19 12:02:00,
2013-06-19 08:12:00,53.0,52.0,30.15,ESE,114,0.0,0.0,98,0.00,,,0.03,,2013-06-19 12:12:00,
2013-06-19 08:22:00,54.0,53.0,30.16,SSW,203,0.0,1.0,95,0.00,,,0.03,,2013-06-19 12:22:00,
2013-06-19 08:34:00,54.0,53.0,30.16,SSW,203,0.0,1.0,95,0.00,,,0.03,,2013-06-19 12:34:00,
2013-06-19 08:44:00,55.0,52.0,30.16,SSW,204,0.0,1.0,89,0.00,,,0.03,,2013-06-19 12:44:00,
2013-06-19 08:53:00,57.0,52.0,30.16,South,176,1.0,2.0,82,0.00,,,0.03,,2013-06-19 12:53:00,
2013-06-19 09:02:00,57.0,52.0,30.16,South,176,1.0,2.0,82,0.00,,,0.03,,2013-06-19 13:02:00,
2013-06-19 09:12:00,59.0,53.0,30.16,SW,236,0.0,2.0,80,0.00,,,0.03,,2013-06-19 13:12:00,
2013-06-19 09:22:00,61.0,53.0,30.16,WSW,253,0.0,1.0,75,0.00,,,0.03,,2013-06-19 13:22:00,
2013-06-19 09:33:00,61.0,53.0,30.16,WSW,253,0.0,1.0,75,0.00,,,0.03,,2013-06-19 13:33:00,
2013-06-19 09:43:00,62.0,53.0,30.16,SW,219,0.0,2.0,73,0.00,,,0.03,,2013-06-19 13:43:00,
2013-06-19 09:54:00,64.0,54.0,30.16,SW,222,0.0,4.0,69,0.00,,,0.03,,2013-06-19 13:54:00,
2013-06-19 10:02:00,64.0,54.0,30.16,SW,222,0.0,4.0,69,0.00,,,0.03,,2013-06-19 14:02:00,
2013-06-19 10:12:00,65.0,52.0,30.17,SE,141,0.0,2.0,63,0.00,,,0.03,,2013-06-19 14:12:00,
2013-06-19 10:22:00,67.0,51.0,30.17,ESE,104,1.0,4.0,56,0.00,,,0.03,,2013-06-19 14:22:00,
2013-06-19 10:33:00,67.0,51.0,30.17,ESE,104,1.0,4.0,56,0.00,,,0.03,,2013-06-19 14:33:00,
2013-06-19 10:44:00,68.0,51.0,30.18,ESE,107,0.0,2.0,55,0.00,,,0.03,,2013-06-19 14:44:00,
2013-06-19 10:52:00,68.0,51.0,30.18,ESE,107,0.0,2.0,55,0.00,,,0.03,,2013-06-19 14:52:00,
2013-06-19 11:02:00,68.0,51.0,30.18,SE,136,0.0,2.0,54,0.00,,,0.03,,2013-06-19 15:02:00,
2013-06-19 11:11:00,68.0,48.0,30.18,West,265,0.0,5.0,49,0.00,,,0.03,,2013-06-19 15:11:00,
2013-06-19 11:22:00,68.0,48.0,30.18,West,265,0.0,5.0,49,0.00,,,0.03,,2013-06-19 15:22:00,
2013-06-19 11:33:00,68.0,50.0,30.18,East,84,1.0,5.0,52,0.00,,,0.02,,2013-06-19 15:33:00,
2013-06-19 11:43:00,69.0,51.0,30.18,East,96,0.0,2.0,52,0.00,,,0.02,,2013-06-19 15:43:00,
2013-06-19 11:53:00,69.0,51.0,30.18,East,96,0.0,2.0,52,0.00,,,0.02,,2013-06-19 15:53:00,
2013-06-19 12:02:00,69.0,48.0,30.18,WSW,245,1.0,3.0,48,0.00,,,0.02,,2013-06-19 16:02:00,
2013-06-19 12:11:00,69.0,49.0,30.18,NW,304,1.0,3.0,49,0.00,,,0.02,,2013-06-19 16:11:00,
2013-06-19 12:22:00,69.0,49.0,30.18,NW,304,1.0,3.0,49,0.00,,,0.02,,2013-06-19 16:22:00,
2013-06-19 12:34:00,70.0,48.0,30.18,SW,228,1.0,4.0,46,0.00,,,0.01,,2013-06-19 16:34:00,
2013-06-19 12:43:00,70.0,46.0,30.18,East,79,1.0,3.0,43,0.00,,,0.01,,2013-06-19 16:43:00,
2013-06-19 12:52:00,70.0,50.0,30.18,ENE,75,1.0,2.0,49,0.00,,,0.01,,2013-06-19 16:52:00,
2013-06-19 13:02:00,70.0,50.0,30.18,ENE,75,1.0,2.0,49,0.00,,,0.01,,2013-06-19 17:02:00,
2013-06-19 13:12:00,71.0,50.0,30.18,WSW,246,0.0,2.0,47,0.00,,,0.01,,2013-06-19 17:12:00,
2013-06-19 13:22:00,71.0,50.0,30.18,WSW,246,0.0,2.0,47,0.00,,,0.01,,2013-06-19 17:22:00,
2013-06-19 13:34:00,71.0,45.0,30.18,SE,129,1.0,3.0,40,0.00,,,0.01,,2013-06-19 17:34:00,
2013-06-19 13:43:00,71.0,47.0,30.18,NNE,13,0.0,2.0,42,0.00,,,0.01,,2013-06-19 17:43:00,
2013-06-19 13:53:00,70.0,44.0,30.18,North,10,1.0,3.0,39,0.00,,,0.01,,2013-06-19 17:53:00,
2013-06-19 14:02:00,70.0,44.0,30.18,North,10,1.0,3.0,39,0.00,,,0.01,,2013-06-19 18:02:00,
2013-06-19 14:12:00,70.0,43.0,30.18,WSW,242,1.0,4.0,38,0.00,,,0.01,,2013-06-19 18:12:00,
2013-06-19 14:24:00,71.0,47.0,30.18,North,7,0.0,3.0,43,0.00,,,0.00,,2013-06-19 18:24:00,
2013-06-19 14:33:00,71.0,47.0,30.18,North,7,0.0,3.0,43,0.00,,,0.00,,2013-06-19 18:33:00,
2013-06-19 14:44:00,71.0,45.0,30.18,SE,135,0.0,4.0,39,0.00,,,0.00,,2013-06-19 18:44:00,
2013-06-19 14:53:00,72.0,45.0,30.18,SSW,211,0.0,4.0,38,0.00,,,0.00,,2013-06-19 18:53:00,
2013-06-19 15:01:00,72.0,45.0,30.18,SSW,211,0.0,4.0,38,0.00,,,0.00,,2013-06-19 19:01:00,
2013-06-19 15:12:00,72.0,46.0,30.18,North,354,1.0,3.0,40,0.00,,,0.00,,2013-06-19 19:12:00,
2013-06-19 15:22:00,72.0,44.0,30.19,South,176,1.0,4.0,37,0.00,,,0.00,,2013-06-19 19:22:00,
2013-06-19 15:32:00,72.0,44.0,30.19,South,176,1.0,4.0,37,0.00,,,0.00,,2013-06-19 19:32:00,
2013-06-19 15:43:00,72.0,44.0,30.19,SW,233,1.0,2.0,37,0.00,,,0.00,,2013-06-19 19:43:00,
2013-06-19 15:53:00,71.0,45.0,30.19,ESE,104,1.0,4.0,39,0.00,,,0.00,,2013-06-19 19:53:00,
2013-06-19 16:02:00,71.0,45.0,30.19,ESE,104,1.0,4.0,39,0.00,,,0.00,,2013-06-19 20:02:00,
2013-06-19 16:11:00,71.0,45.0,30.19,ESE,115,0.0,2.0,40,0.00,,,0.00,,2013-06-19 20:11:00,
2013-06-19 16:22:00,70.0,43.0,30.19,ENE,69,1.0,2.0,38,0.00,,,0.00,,2013-06-19 20:22:00,
2013-06-19 16:33:00,70.0,43.0,30.19,ENE,69,1.0,2.0,38,0.00,,,0.00,,2013-06-19 20:33:00,
2013-06-19 16:42:00,70.0,43.0,30.19,SSW,212,1.0,3.0,38,0.00,,,0.00,,2013-06-19 20:42:00,
2013-06-19 16:52:00,70.0,43.0,30.19,SSW,212,1.0,3.0,38,0.00,,,0.00,,2013-06-19 20:52:00,
2013-06-19 17:02:00,69.0,43.0,30.19,East,79,1.0,2.0,39,0.00,,,0.00,,2013-06-19 21:02:00,
2013-06-19 17:12:00,69.0,46.0,30.19,North,6,0.0,2.0,43,0.00,,,0.00,,2013-06-19 21:12:00,
2013-06-19 17:22:00,69.0,44.0,30.18,ESE,121,0.0,2.0,41,0.00,,,0.00,,2013-06-19 21:22:00,
2013-06-19 17:33:00,69.0,44.0,30.18,ESE,121,0.0,2.0,41,0.00,,,0.00,,2013-06-19 21:33:00,
2013-06-19 17:44:00,67.0,44.0,30.18,SSE,166,0.0,1.0,43,0.00,,,0.00,,2013-06-19 21:44:00,
2013-06-19 17:52:00,67.0,44.0,30.18,SSE,166,0.0,1.0,43,0.00,,,0.00,,2013-06-19 21:52:00,
2013-06-19 18:02:00,68.0,45.0,30.19,ESE,121,0.0,3.0,44,0.00,,,0.00,,2013-06-19 22:02:00,
2013-06-19 18:11:00,67.0,46.0,30.19,ESE,121,0.0,0.0,46,0.00,,,0.00,,2013-06-19 22:11:00,
2013-06-19 18:22:00,66.0,46.0,30.19,SE,138,0.0,1.0,49,0.00,,,0.00,,2013-06-19 22:22:00,
2013-06-19 18:34:00,66.0,46.0,30.19,SE,138,0.0,1.0,49,0.00,,,0.00,,2013-06-19 22:34:00,
2013-06-19 18:43:00,66.0,46.0,30.20,SSW,203,0.0,1.0,49,0.00,,,0.00,,2013-06-19 22:43:00,
2013-06-19 18:53:00,67.0,46.0,30.19,SE,132,0.0,1.0,46,0.00,,,0.00,,2013-06-19 22:53:00,
2013-06-19 19:02:00,67.0,46.0,30.19,SE,132,0.0,1.0,46,0.00,,,0.00,,2013-06-19 23:02:00,
2013-06-19 19:12:00,66.0,45.0,30.20,ESE,114,0.0,1.0,46,0.00,,,0.00,,2013-06-19 23:12:00,
2013-06-19 19:23:00,66.0,46.0,30.20,ESE,115,0.0,0.0,48,0.00,,,0.00,,2013-06-19 23:23:00,
2013-06-19 19:34:00,66.0,46.0,30.20,ESE,115,0.0,0.0,48,0.00,,,0.00,,2013-06-19 23:34:00,
2013-06-19 19:43:00,65.0,46.0,30.21,ESE,114,0.0,0.0,50,0.00,,,0.00,,2013-06-19 23:43:00,
2013-06-19 19:52:00,65.0,46.0,30.21,ESE,114,0.0,0.0,50,0.00,,,0.00,,2013-06-19 23:52:00,
2013-06-19 20:02:00,63.0,50.0,30.22,ESE,114,0.0,0.0,63,0.00,,,0.00,,2013-06-20 00:02:00,
2013-06-19 20:12:00,63.0,50.0,30.22,ESE,114,0.0,0.0,63,0.00,,,0.00,,2013-06-20 00:12:00,
2013-06-19 20:22:00,63.0,50.0,30.22,ESE,114,0.0,0.0,63,0.00,,,0.00,,2013-06-20 00:22:00,
2013-06-19 20:34:00,61.0,50.0,30.22,ESE,114,0.0,0.0,67,0.00,,,0.00,,2013-06-20 00:34:00,
2013-06-19 20:44:00,59.0,49.0,30.23,ESE,114,0.0,0.0,70,0.00,,,0.00,,2013-06-20 00:44:00,
2013-06-19 20:52:00,58.0,49.0,30.24,ESE,115,0.0,0.0,73,0.00,,,0.00,,2013-06-20 00:52:00,
2013-06-19 21:02:00,58.0,49.0,30.24,ESE,115,0.0,0.0,73,0.00,,,0.00,,2013-06-20 01:02:00,
2013-06-19 21:12:00,57.0,50.0,30.24,ESE,114,0.0,0.0,77,0.00,,,0.00,,2013-06-20 01:12:00,
2013-06-19 21:22:00,55.0,49.0,30.25,ESE,115,0.0,0.0,80,0.00,,,0.00,,2013-06-20 01:22:00,
2013-06-19 21:33:00,55.0,49.0,30.25,ESE,115,0.0,0.0,80,0.00,,,0.00,,2013-06-20 01:33:00,
2013-06-19 21:44:00,55.0,49.0,30.25,ESE,115,0.0,0.0,80,0.00,,,0.00,,2013-06-20 01:44:00,
2013-06-19 21:52:00,53.0,49.0,30.27,ESE,115,0.0,0.0,85,0.00,,,0.00,,2013-06-20 01:52:00,
2013-06-19 22:02:00,53.0,49.0,30.27,ESE,115,0.0,0.0,85,0.00,,,0.00,,2013-06-20 02:02:00,
2013-06-19 22:12:00,53.0,49.0,30.28,ESE,115,0.0,0.0,87,0.00,,,0.00,,2013-06-20 02:12:00,
2013-06-19 22:24:00,52.0,49.0,30.28,ESE,114,0.0,1.0,88,0.00,,,0.00,,2013-06-20 02:24:00,
2013-06-19 22:34:00,52.0,49.0,30.28,ESE,114,0.0,1.0,88,0.00,,,0.00,,2013-06-20 02:34:00,
2013-06-19 22:43:00,51.0,48.0,30.28,ESE,115,0.0,0.0,89,0.00,,,0.00,,2013-06-20 02:43:00,
2013-06-19 22:52:00,51.0,48.0,30.28,ESE,115,0.0,0.0,89,0.00,,,0.00,,2013-06-20 02:52:00,
2013-06-19 23:02:00,50.0,47.0,30.29,ESE,114,0.0,0.0,90,0.00,,,0.00,,2013-06-20 03:02:00,
2013-06-19 23:12:00,50.0,47.0,30.29,ESE,114,0.0,0.0,90,0.00,,,0.00,,2013-06-20 03:12:00,
2013-06-19 23:22:00,49.0,46.0,30.30,ESE,115,0.0,1.0,91,0.00,,,0.00,,2013-06-20 03:22:00,
2013-06-19 23:33:00,49.0,46.0,30.30,ESE,115,0.0,1.0,91,0.00,,,0.00,,2013-06-20 03:33:00,
2013-06-19 23:43:00,49.0,46.0,30.30,ESE,115,0.0,0.0,91,0.00,,,0.00,,2013-06-20 03:43:00,
2013-06-19 23:54:00,48.0,46.0,30.31,ESE,115,0.0,0.0,92,0.00,,,0.00,,2013-06-20 03:54:00,